User: anonymous   Login
Location: Molveno
(46.1500°N, 10.9667°E)
Time: 07:30:09
(UTC+00:00)
Language:

Cosmos 1500 Rocket - Orbit

View from above orbital plane
View from above orbital plane
View from above satellite
View from above satellite

Ground track
Ground track

The orbit data is extracted from the following two-line orbital elements,

1 14373U 83099B   20273.59058911 +.00000084 +00000-0 +71848-5 0  9994
2 14373 082.5429 202.5988 0019047 221.8798 311.4659 14.83797782977774
Epoch (UTC): 29 September 2020 14:10:26
Eccentricity: 0.0019047
inclination: 82.5429°
perigee height: 604 km
apogee height: 630 km
right ascension of ascending node: 202.5988°
argument of perigee: 221.8798°
revolutions per day: 14.83797782
mean anomaly at epoch: 311.4659°
orbit number at epoch: 97777

The dashed part of the orbit path shows where the satellite is in the earth's shadow,  

DLR